Location: Recife
(8.0585°S, 34.8848°W)
Time: 11:14:48
(UTC-03:00)

Transit 2A Rocket - Pass Details

Date: 14 April 2026
Orbit: 587 x 895 km, 66.7° (Epoch: 14 May)

Event Time Altitude Azimuth Distance (km) Brightness Sun altitude
Rises 22:25:54 0° 165° (SSE) 3,416 - -76.6°
Reaches altitude 10° 22:30:19 10° 133° (SE) 2,527 - -77.7°
Maximum altitude 22:32:16 12° 113° (ESE) 2,424 - -78.2°
Drops below altitude 10° 22:34:14 10° 94° (E) 2,551 - -78.6°
Sets 22:38:43 0° 63° (ENE) 3,497 - -79.7°
